Regional Weather Roundup
Issued by NWS Lake Charles, LA

Home | Current Version | Previous Version | Text Only | Print | Product List | Glossary On
Versions: 1 2 3 4 5 6 7 8 9 10 11 12 13 14 15 16 17 18 19 20 21 22 23 24 25 26 27 28 29 30 31 32 33 34 35 36 37 38 39 40 41 42 43 44 45 46 47 48 49 50
422
ASUS44 KLCH 190610
RWRLCH
REGIONAL WEATHER ROUNDUP
NATIONAL WEATHER SERVICE LAKE CHARLES LA
100 AM CDT SAT AUG 19 2017

Note: "fair" indicates few or no clouds below 12,000 feet with no
significant weather and/or obstructions to visibility.


ACROSS SOUTHEAST TEXAS

CITY           SKY/WX    TMP DP  RH WIND       PRES   REMARKS
BEAUMONT       CLEAR     79  77  94 W3        30.01R
BEAUMONT CITY  FAIR      80  76  89 MISG      30.02S
ORANGE         CLEAR     81  78  92 CALM      30.03S
JASPER           N/A     80  78  92 CALM      30.05R
$$

ACROSS CENTRAL LOUISIANA

CITY           SKY/WX    TMP DP  RH WIND       PRES   REMARKS
LEESVILLE      CLEAR     80  77  89 SW3       30.01S
FULLERTON      FAIR      78  77  96 CALM      29.99S
ALEXANDRIA INT   N/A    N/A N/A N/A MISG      29.99S
ESLER FIELD    FOG       77  77 100 CALM      30.00F VSB 3/4
DERIDDER       FAIR      80  78  95 SW3       30.04S
OAKDALE        CLEAR     78  75  92 CALM      30.01S
OPELOUSAS      FAIR      78  78  98 CALM      30.01S
$$

ACROSS SOUTHWEST AND SOUTH CENTRAL LOUISIANA

CITY           SKY/WX    TMP DP  RH WIND       PRES   REMARKS
SULPHUR        CLEAR     82  78  88 CALM      30.03R
LAKE CHARLES   CLEAR     82  78  88 CALM      30.01S
CHENNAULT INT  CLEAR     82  78  88 SW3       30.02S
CAMERON PHI    CLEAR     86  77  74 SW8       30.01R
DEQUINCY       FAIR      79  76  92 CALM      30.02S
JENNINGS       FAIR      80  77  92 CALM      30.01F
LAFAYETTE      CLEAR     81  78  91 SW5       30.01S
NEW IBERIA     CLEAR     79  75  87 CALM      30.02S
ABBEVILLE      FAIR      77  77 100 CALM      30.01F
PATTERSON      CLEAR     79  78  97 CALM      30.01F
SALT POINT       N/A     86  77  74 VRB3      29.99F
$$

SELECTED SITES ACROSS THE REGION

CITY           SKY/WX    TMP DP  RH WIND       PRES   REMARKS
HOUSTON BUSH   CLEAR     83  76  79 S5        30.01S
HOUSTON HOBBY  CLEAR     84  76  76 S6        30.01S
GALVESTON      CLEAR     85  78  80 S12       30.02S
COLLEGE STAT   CLEAR     83  74  74 S7        30.01R
CONROE         CLEAR     79  74  84 CALM      30.02R
HUNTSVILLE     CLEAR     83  74  74 S7        30.02R
LUFKIN         CLEAR     80  75  84 S3        30.01S
SHREVEPORT     PTCLDY    82  77  84 S5        29.99S
MONROE         CLEAR     80  76  87 SW3       29.98F
NATCHEZ MS     CLEAR     79  77  94 S5        30.01F
BATON ROUGE    CLEAR     81  76  84 CALM      30.00S
N.O. INTL ARPT PTCLDY    80  78  94 W5        30.00S
SLIDELL        CLEAR     79  76  90 CALM      29.99F
$$

MARINE REPORTS

STATION/POSITION TIME  SKY/WX   TEMP    WIND        PRES    VSBY
                                AIR SEA DIR/SP/G
                 (UTC)          (F)     (DEG/KT/KT) (MB)    (MI)
BUOY 30 S HIGH I 0450            86 88  190/ 14/ 14 1016.0
WVE H/P(F/S)=  2/ 6

SEA RIM ST PARK  0500            85     200/ 10/ 12 1016.6R
PORT ARTHUR      0548            83 88  200/  3/  6 1016.7R
SABINE PASS N    0542            84 90  200/  4/  5 1017.8R
TEXAS POINT      NOT AVBL
CALCASIEU PASS   0548               89  240/ 10/ 11 1015.6R
LK CHARLES BEACH 0548            84 87              1016.8R
MARSH ISLAND     0500            87                   N/A
FRESH WATER LOCK 0548            84 90  200/  5/  6 1016.1F
AMERADA PASS     0548            83 87   CALM  /  3 1016.0F
$$




USA.gov is the U.S. government's official web portal to all federal, state and local government web resources and services.